• In France
  • List of Countries
  • For 7 days
  • Water Temperature
  • Satellite Maps
  • Weather Map
  • Weather Widgets
  • user-avatar
    Login

    Hourly Weather Medellín

    Today, 21 May, Monday

    Time Temperature Precipitation Wind Pressure Humidity
    00:00 +13°C° 1.1 mm 0 mps 586 mmHg 96%
    01:00 +12°C° 1.1 mm 0 mps 585 mmHg 96%
    02:00 +12°C° 0.7 mm 0 mps 585 mmHg 96%
    03:00 +12°C° 0.7 mm 0 mps 585 mmHg 96%
    04:00 +12°C° 0.7 mm 0 mps 585 mmHg 96%
    05:00 +12°C° 0.5 mm 0 mps 585 mmHg 95%
    06:00 +13°C° 0.5 mm 0 mps 586 mmHg 94%
    07:00 +13°C° 0.5 mm 0 mps 586 mmHg 94%
    08:00 +15°C° 0.3 mm 0 mps 587 mmHg 85%
    09:00 +16°C° 0.3 mm 0 mps 588 mmHg 76%
    10:00 +18°C° 0.3 mm 0 mps 589 mmHg 67%
    11:00 +19°C° 0.6 mm 0 mps 588 mmHg 67%
    12:00 +20°C° 0.6 mm 0 mps 588 mmHg 68%
    13:00 +20°C° 0.6 mm 0 mps 588 mmHg 69%
    14:00 +20°C° 1.2 mm 0 mps 587 mmHg 71%
    15:00 +21°C° 1.2 mm 1 mps 587 mmHg 73%
    16:00 +21°C° 1.2 mm 1 mps 586 mmHg 75%
    17:00 +19°C° 1.4 mm 1 mps 586 mmHg 81%
    18:00 +18°C° 1.4 mm 1 mps 585 mmHg 86%
    19:00 +15°C° 1.4 mm 1 mps 585 mmHg 91%
    20:00 +14°C° 1.3 mm 0 mps 585 mmHg 93%
    21:00 +14°C° 1.3 mm 0 mps 586 mmHg 94%
    22:00 +13°C° 1.3 mm 0 mps 586 mmHg 95%
    23:00 +13°C° 1.2 mm 0 mps 586 mmHg 96%

    Tomorrow, 22 May, Tuesday

    Time Temperature Precipitation Wind Pressure Humidity
    00:00 +13°C° 1.2 mm 0 mps 586 mmHg 96%
    01:00 +13°C° 1.2 mm 0 mps 586 mmHg 96%
    02:00 +13°C° 0.8 mm 0 mps 585 mmHg 96%
    03:00 +12°C° 0.8 mm 0 mps 585 mmHg 96%
    04:00 +12°C° 0.8 mm 0 mps 585 mmHg 96%
    05:00 +13°C° 0.6 mm 0 mps 585 mmHg 95%
    06:00 +13°C° 0.6 mm 0 mps 586 mmHg 94%
    07:00 +13°C° 0.6 mm 0 mps 586 mmHg 93%
    08:00 +15°C° 0.5 mm 0 mps 587 mmHg 86%
    09:00 +18°C° 0.5 mm 1 mps 588 mmHg 80%
    10:00 +20°C° 0.5 mm 1 mps 589 mmHg 73%
    11:00 +20°C° 0.8 mm 1 mps 588 mmHg 72%
    12:00 +21°C° 0.8 mm 1 mps 588 mmHg 72%
    13:00 +22°C° 0.8 mm 1 mps 587 mmHg 71%
    14:00 +21°C° 1.2 mm 1 mps 587 mmHg 73%
    15:00 +21°C° 1.2 mm 1 mps 586 mmHg 74%
    16:00 +21°C° 1.2 mm 1 mps 586 mmHg 76%
    17:00 +19°C° 1.4 mm 1 mps 585 mmHg 82%
    18:00 +18°C° 1.4 mm 1 mps 585 mmHg 87%
    19:00 +15°C° 1.4 mm 1 mps 585 mmHg 93%
    20:00 +15°C° 1.1 mm 1 mps 585 mmHg 93%
    21:00 +14°C° 1.1 mm 0 mps 586 mmHg 94%
    22:00 +13°C° 1.1 mm 0 mps 586 mmHg 94%
    23:00 +13°C° 1.8 mm 0 mps 586 mmHg 94%

    Day after tomorrow, 23 May, Wednesday

    Time Temperature Precipitation Wind Pressure Humidity
    00:00 +13°C° 1.8 mm 0 mps 586 mmHg 94%
    01:00 +13°C° 1.8 mm 0 mps 586 mmHg 94%
    02:00 +13°C° 1.7 mm 0 mps 586 mmHg 95%
    03:00 +13°C° 1.7 mm 0 mps 585 mmHg 95%
    04:00 +13°C° 1.7 mm 0 mps 585 mmHg 95%
    05:00 +13°C° 0.7 mm 0 mps 586 mmHg 94%
    06:00 +13°C° 0.7 mm 0 mps 586 mmHg 93%
    07:00 +13°C° 0.7 mm 0 mps 586 mmHg 92%
    08:00 +15°C° 0.5 mm 0 mps 587 mmHg 86%
    09:00 +16°C° 0.5 mm 0 mps 588 mmHg 81%
    10:00 +19°C° 0.5 mm 1 mps 589 mmHg 75%
    11:00 +20°C° 0.9 mm 1 mps 588 mmHg 74%
    12:00 +20°C° 0.9 mm 1 mps 588 mmHg 74%
    13:00 +21°C° 0.9 mm 1 mps 588 mmHg 73%
    14:00 +20°C° 1.7 mm 1 mps 587 mmHg 76%
    15:00 +20°C° 1.7 mm 1 mps 587 mmHg 78%
    16:00 +19°C° 1.7 mm 1 mps 586 mmHg 80%
    17:00 +18°C° 0.9 mm 1 mps 586 mmHg 85%
    18:00 +15°C° 0.9 mm 0 mps 586 mmHg 89%
    19:00 +14°C° 0.9 mm 0 mps 586 mmHg 93%
    20:00 +13°C° 0.4 mm 0 mps 586 mmHg 93%
    21:00 +13°C° 0.4 mm 0 mps 587 mmHg 93%
    22:00 +13°C° 0.4 mm 0 mps 587 mmHg 93%
    23:00 +13°C° 0.4 mm 0 mps 587 mmHg 93%

    24 May, Thursday

    Time Temperature Precipitation Wind Pressure Humidity
    00:00 +13°C° 0.4 mm 0 mps 586 mmHg 93%
    01:00 +13°C° 0.4 mm 0 mps 586 mmHg 92%
    02:00 +12°C° 0.5 mm 0 mps 586 mmHg 92%
    03:00 +12°C° 0.5 mm 0 mps 586 mmHg 92%
    04:00 +12°C° 0.5 mm 0 mps 585 mmHg 92%
    05:00 +12°C° 0.2 mm 0 mps 586 mmHg 91%
    06:00 +13°C° 0.2 mm 0 mps 587 mmHg 90%
    07:00 +13°C° 0.2 mm 0 mps 587 mmHg 88%
    08:00 +16°C° 0.3 mm 1 mps 588 mmHg 82%
    09:00 +18°C° 0.3 mm 1 mps 589 mmHg 75%
    10:00 +20°C° 0.3 mm 1 mps 590 mmHg 68%
    11:00 +20°C° 1.1 mm 1 mps 589 mmHg 72%
    12:00 +19°C° 1.1 mm 1 mps 588 mmHg 76%
    13:00 +19°C° 1.1 mm 1 mps 587 mmHg 79%
    14:00 +19°C° 0.6 mm 1 mps 587 mmHg 79%
    15:00 +19°C° 0.6 mm 1 mps 587 mmHg 78%
    16:00 +19°C° 0.6 mm 1 mps 586 mmHg 78%
    17:00 +18°C° 0.4 mm 1 mps 586 mmHg 82%
    18:00 +15°C° 0.4 mm 0 mps 586 mmHg 86%
    19:00 +13°C° 0.4 mm 0 mps 586 mmHg 90%
    20:00 +13°C° 0.3 mm 0 mps 586 mmHg 91%
    21:00 +13°C° 0.3 mm 0 mps 587 mmHg 91%
    22:00 +14°C° 0.3 mm 1 mps 587 mmHg 91%
    23:00 +13°C° 0.4 mm 0 mps 587 mmHg 91%

    25 May, Friday

    Time Temperature Precipitation Wind Pressure Humidity
    00:00 +12°C° 0.4 mm 0 mps 586 mmHg 91%
    01:00 +12°C° 0.4 mm 0 mps 586 mmHg 91%
    02:00 +12°C° 0.3 mm 0 mps 586 mmHg 91%
    03:00 +12°C° 0.3 mm 0 mps 585 mmHg 90%
    04:00 +13°C° 0.3 mm 1 mps 585 mmHg 90%
    05:00 +12°C° 0.3 mm 0 mps 586 mmHg 89%
    06:00 +13°C° 0.3 mm 0 mps 586 mmHg 88%
    07:00 +13°C° 0.3 mm 0 mps 587 mmHg 87%
    08:00 +15°C° 0.2 mm 0 mps 587 mmHg 80%
    09:00 +17°C° 0.2 mm 0 mps 588 mmHg 74%
    10:00 +20°C° 0.2 mm 1 mps 589 mmHg 67%
    11:00 +21°C° 0.4 mm 1 mps 589 mmHg 66%
    12:00 +22°C° 0.4 mm 1 mps 589 mmHg 65%
    13:00 +23°C° 0.4 mm 1 mps 588 mmHg 64%
    14:00 +22°C° 1.1 mm 1 mps 588 mmHg 68%
    15:00 +21°C° 1.1 mm 1 mps 587 mmHg 71%
    16:00 +21°C° 1.1 mm 1 mps 587 mmHg 75%
    17:00 +19°C° 1 mm 1 mps 586 mmHg 80%
    18:00 +18°C° 1 mm 1 mps 586 mmHg 85%
    19:00 +15°C° 1 mm 1 mps 586 mmHg 91%
    20:00 +15°C° 0.7 mm 1 mps 586 mmHg 91%
    21:00 +15°C° 0.7 mm 1 mps 587 mmHg 92%
    22:00 +14°C° 0.7 mm 0 mps 587 mmHg 93%
    23:00 +13°C° 0.5 mm 0 mps 586 mmHg 93%

    26 May, Saturday

    Time Temperature Precipitation Wind Pressure Humidity
    00:00 +13°C° 0.5 mm 0 mps 586 mmHg 94%
    01:00 +13°C° 0.5 mm 0 mps 586 mmHg 94%
    02:00 +13°C° 0.4 mm 0 mps 585 mmHg 95%
    03:00 +13°C° 0.4 mm 0 mps 585 mmHg 95%
    04:00 +13°C° 0.4 mm 0 mps 585 mmHg 95%
    05:00 +13°C° 0.4 mm 0 mps 586 mmHg 94%
    06:00 +13°C° 0.4 mm 0 mps 586 mmHg 94%
    07:00 +13°C° 0.4 mm 0 mps 587 mmHg 93%
    08:00 +15°C° 0.4 mm 0 mps 587 mmHg 88%
    09:00 +16°C° 0.4 mm 0 mps 588 mmHg 83%
    10:00 +17°C° 0.4 mm 0 mps 588 mmHg 78%
    11:00 +20°C° 0.7 mm 1 mps 588 mmHg 76%
    12:00 +20°C° 0.7 mm 1 mps 588 mmHg 74%
    13:00 +21°C° 0.7 mm 1 mps 588 mmHg 73%
    14:00 +20°C° 1.3 mm 1 mps 587 mmHg 77%
    15:00 +19°C° 1.3 mm 1 mps 587 mmHg 81%
    16:00 +18°C° 1.3 mm 1 mps 586 mmHg 85%
    17:00 +16°C° 1 mm 1 mps 586 mmHg 88%
    18:00 +14°C° 1 mm 0 mps 586 mmHg 91%
    19:00 +14°C° 1 mm 0 mps 586 mmHg 94%
    20:00 +13°C° 1 mm 0 mps 586 mmHg 94%
    21:00 +13°C° 1 mm 0 mps 586 mmHg 94%
    22:00 +13°C° 1 mm 0 mps 586 mmHg 94%
    23:00 +13°C° 0.8 mm 0 mps 586 mmHg 94%
    Show more